Weather History for Kaiser, MO

Change the Weather History Date:

Friday, January 31, 2014

  Actual Average Record
Temperature  
Mean Temperature 32 °F -  
Max Temperature 35 °F 41 °F 62 °F (1997)
Min Temperature 28 °F 24 °F 3 °F (2007)
Degree Days  
Heating Degree Days 34    
Moisture  
Dew Point 21 °F    
Average Humidity 68    
Maximum Humidity 93    
Minimum Humidity 48    
Precipitation  
Precipitation 0.00 in - - ()
Sea Level Pressure  
Sea Level Pressure 29.98 in    
Wind  
Wind Speed 7 mph (NE)    
Max Wind Speed 13 mph    
Max Gust Speed -    
Visibility 8 miles    
Events      
Averages and records for this station are not official NWS values.
T = Trace of Precipitation, MM = Missing Value Source: NWS Daily Summary

Daily Weather History Graph

Daily Weather History Graph

Search for Another Location

Airport:

Trip Planner

Search our weather history database for the weather conditions in past years. The results will help you decide how hot, cold, wet, or windy it might be!

Date:

Astronomy

Jan. 31, 2014 Rise Set
Actual Time 7:15 AM CST 5:32 PM CST
Civil Twilight 6:47 AM CST 5:59 PM CST
Nautical Twilight 6:16 AM CST 6:31 PM CST
Astronomical Twilight 5:45 AM CST 7:02 PM CST
Moon 7:27 AM CST (1/31) 6:54 PM CST (1/31)
Length of Visible Light 11h 12m
Length of Day
10h 16m
New Moon, 1% of the Moon is Illuminated
Jan 31
New Moon
Feb 6
First Quarter
Feb 14
Full
Feb 22
Last Quarter
Mar 1
New

Hourly Weather History & Observations

Time (CST) Temp. Windchill Dew Point Humidity Pressure Visibility Wind Dir Wind Speed Gust Speed Precip Events Conditions
12:15 AM 32.0 °F - 15.8 °F 51% 29.95 in 10.0 mi Calm Calm - N/A   Clear
12:35 AM 32.0 °F 28.7 °F 15.8 °F 51% 29.96 in 10.0 mi NNW 3.5 mph - N/A   Clear
12:55 AM 35.6 °F 31.7 °F 17.6 °F 48% 29.98 in 10.0 mi NNW 4.6 mph - N/A   Clear
1:15 AM 33.8 °F 30.8 °F 17.6 °F 52% 29.98 in 10.0 mi North 3.5 mph - N/A   Clear
1:35 AM 35.6 °F - 17.6 °F 48% 29.99 in 10.0 mi Calm Calm - N/A   Clear
1:55 AM 33.8 °F 30.8 °F 19.4 °F 56% 29.99 in 10.0 mi NNE 3.5 mph - N/A   Clear
2:15 AM 33.8 °F 28.6 °F 19.4 °F 56% 29.98 in 10.0 mi NE 5.8 mph - N/A   Clear
2:35 AM 33.8 °F - 19.4 °F 56% 30.01 in 10.0 mi Calm Calm - N/A   Mostly Cloudy
2:55 AM 33.8 °F 29.6 °F 19.4 °F 56% 30.00 in 10.0 mi NNE 4.6 mph - N/A   Overcast
3:15 AM 33.8 °F 26.4 °F 19.4 °F 56% 29.99 in 10.0 mi NE 9.2 mph - N/A   Overcast
3:35 AM 32.0 °F 25.6 °F 19.4 °F 60% 29.98 in 10.0 mi NE 6.9 mph - N/A   Mostly Cloudy
3:55 AM 32.0 °F 24.8 °F 19.4 °F 60% 29.98 in 10.0 mi NE 8.1 mph - N/A   Partly Cloudy
4:15 AM 30.2 °F 22.6 °F 19.4 °F 64% 29.99 in 10.0 mi NE 8.1 mph - N/A   Partly Cloudy
4:35 AM 30.2 °F 24.3 °F 19.4 °F 64% 29.99 in 10.0 mi NE 5.8 mph - N/A   Mostly Cloudy
4:55 AM 30.2 °F 23.4 °F 19.4 °F 64% 30.00 in 10.0 mi NE 6.9 mph - N/A   Overcast
5:15 AM 30.2 °F 23.4 °F 19.4 °F 64% 30.01 in 10.0 mi NNE 6.9 mph - N/A   Overcast
5:35 AM 30.2 °F 22.6 °F 19.4 °F 64% 30.00 in 10.0 mi NE 8.1 mph - N/A   Overcast
5:55 AM 30.2 °F 22.6 °F 17.6 °F 60% 30.00 in 10.0 mi NE 8.1 mph - N/A   Overcast
6:15 AM 30.2 °F 20.8 °F 19.4 °F 64% 30.00 in 10.0 mi NE 11.5 mph - N/A   Mostly Cloudy
6:35 AM 28.4 °F 19.7 °F 17.6 °F 64% 30.01 in 10.0 mi NE 9.2 mph - N/A   Partly Cloudy
6:55 AM 28.4 °F 19.1 °F 17.6 °F 64% 30.01 in 10.0 mi NE 10.4 mph - N/A   Clear
7:15 AM 28.4 °F 19.1 °F 17.6 °F 64% 30.02 in 10.0 mi NE 10.4 mph - N/A   Partly Cloudy
7:35 AM 28.4 °F 18.5 °F 17.6 °F 64% 30.03 in 10.0 mi NE 11.5 mph - N/A   Scattered Clouds
7:55 AM 28.4 °F 19.1 °F 17.6 °F 64% 30.04 in 10.0 mi NE 10.4 mph - N/A   Mostly Cloudy
8:15 AM 28.4 °F 19.7 °F 17.6 °F 64% 30.04 in 10.0 mi NE 9.2 mph - N/A   Overcast
8:35 AM 28.4 °F 19.7 °F 17.6 °F 64% 30.05 in 10.0 mi ENE 9.2 mph - N/A   Overcast
8:55 AM 28.4 °F 19.1 °F 17.6 °F 64% 30.05 in 10.0 mi ENE 10.4 mph - N/A   Overcast
9:15 AM 28.4 °F 18.5 °F 17.6 °F 64% 30.04 in 10.0 mi ENE 11.5 mph - N/A   Overcast
9:35 AM 28.4 °F 19.1 °F 17.6 °F 64% 30.04 in 10.0 mi ENE 10.4 mph - N/A   Overcast
9:55 AM 30.2 °F 21.9 °F 17.6 °F 60% 30.06 in 10.0 mi ENE 9.2 mph - N/A   Overcast
10:15 AM 30.2 °F 24.3 °F 17.6 °F 60% 30.06 in 10.0 mi ENE 5.8 mph - N/A   Overcast
10:35 AM 30.2 °F 22.6 °F 17.6 °F 60% 30.07 in 10.0 mi NE 8.1 mph - N/A   Overcast
10:55 AM 30.2 °F 21.3 °F 17.6 °F 60% 30.05 in 10.0 mi ENE 10.4 mph - N/A   Overcast
11:15 AM 30.2 °F 21.9 °F 17.6 °F 60% 30.05 in 10.0 mi NE 9.2 mph - N/A   Overcast
11:35 AM 30.2 °F 21.3 °F 17.6 °F 60% 30.04 in 10.0 mi NE 10.4 mph - N/A   Overcast
11:55 AM 30.2 °F 20.8 °F 17.6 °F 60% 30.02 in 10.0 mi NE 11.5 mph - N/A   Overcast
12:15 PM 30.2 °F 21.3 °F 17.6 °F 60% 30.02 in 10.0 mi NE 10.4 mph - N/A   Overcast
12:35 PM 30.2 °F 20.2 °F 17.6 °F 60% 29.99 in 10.0 mi NE 12.7 mph - N/A   Overcast
12:55 PM 30.2 °F 20.8 °F 19.4 °F 64% 29.99 in 10.0 mi ENE 11.5 mph - N/A   Overcast
1:15 PM 32.0 °F 24.2 °F 17.6 °F 55% 29.97 in 10.0 mi NE 9.2 mph - N/A   Overcast
1:35 PM 32.0 °F 22.5 °F 17.6 °F 55% 29.97 in 10.0 mi ENE 12.7 mph - N/A   Mostly Cloudy
1:55 PM 32.0 °F 23.6 °F 19.4 °F 60% 29.97 in 10.0 mi ENE 10.4 mph - N/A   Overcast
2:15 PM 32.0 °F 23.0 °F 19.4 °F 60% 29.97 in 10.0 mi ENE 11.5 mph - N/A   Overcast
2:35 PM 32.0 °F 23.0 °F 19.4 °F 60% 29.97 in 10.0 mi ENE 11.5 mph - N/A   Overcast
2:55 PM 32.0 °F 22.5 °F 19.4 °F 60% 29.97 in 10.0 mi NE 12.7 mph - N/A   Overcast
3:15 PM 32.0 °F 24.2 °F 21.2 °F 64% 29.97 in 10.0 mi ENE 9.2 mph - N/A   Overcast
3:35 PM 32.0 °F 24.2 °F 21.2 °F 64% 29.96 in 10.0 mi ENE 9.2 mph - N/A   Overcast
3:55 PM 32.0 °F 23.6 °F 21.2 °F 64% 29.96 in 9.0 mi ENE 10.4 mph - N/A   Overcast
4:15 PM 30.2 °F 22.6 °F 23.0 °F 75% 29.97 in 9.0 mi ENE 8.1 mph - N/A   Overcast
4:35 PM 30.2 °F 22.6 °F 23.0 °F 75% 29.97 in 10.0 mi NE 8.1 mph - N/A   Overcast
4:55 PM 30.2 °F 21.9 °F 23.0 °F 75% 29.96 in 9.0 mi ENE 9.2 mph - N/A   Overcast
5:15 PM 30.2 °F 21.3 °F 24.8 °F 80% 29.95 in 3.0 mi ENE 10.4 mph - N/A   Overcast
5:35 PM 30.2 °F 20.8 °F 24.8 °F 80% 29.95 in 5.0 mi ENE 11.5 mph - N/A   Overcast
5:55 PM 30.2 °F 23.4 °F 24.8 °F 80% 29.97 in 5.0 mi ENE 6.9 mph - N/A   Overcast
6:15 PM 28.4 °F 20.4 °F 24.8 °F 86% 29.97 in 3.0 mi ENE 8.1 mph - N/A   Overcast
6:35 PM 28.4 °F 19.7 °F 24.8 °F 86% 29.97 in 2.0 mi ENE 9.2 mph - N/A   Overcast
6:55 PM 28.4 °F 20.4 °F 24.8 °F 86% 29.96 in 2.5 mi ENE 8.1 mph - N/A   Overcast
7:15 PM 28.4 °F 19.7 °F 24.8 °F 86% 29.96 in 2.5 mi NE 9.2 mph - N/A   Overcast
7:35 PM 28.4 °F 19.7 °F 24.8 °F 86% 29.96 in 2.0 mi ENE 9.2 mph - N/A   Overcast
7:55 PM 28.4 °F 19.7 °F 24.8 °F 86% 29.95 in 2.0 mi ENE 9.2 mph - N/A   Overcast
8:15 PM 28.4 °F 22.2 °F 24.8 °F 86% 29.96 in 1.5 mi ENE 5.8 mph - N/A   Overcast
8:35 PM 28.4 °F 21.2 °F 24.8 °F 86% 29.95 in 1.5 mi ENE 6.9 mph - N/A   Overcast
8:55 PM 28.4 °F 22.2 °F 24.8 °F 86% 29.95 in 1.2 mi ENE 5.8 mph - N/A   Overcast
9:15 PM 28.4 °F 21.2 °F 24.8 °F 86% 29.95 in 1.2 mi ENE 6.9 mph - N/A   Overcast
9:35 PM 28.4 °F 21.2 °F 24.8 °F 86% 29.93 in 1.0 mi ENE 6.9 mph - N/A   Overcast
9:55 PM 28.4 °F 22.2 °F 24.8 °F 86% 29.94 in 1.0 mi ENE 5.8 mph - N/A   Overcast
10:15 PM 28.4 °F 22.2 °F 24.8 °F 86% 29.93 in 0.8 mi ENE 5.8 mph - N/A   Overcast
10:35 PM 28.4 °F 21.2 °F 24.8 °F 86% 29.92 in 0.8 mi ENE 6.9 mph - N/A   Overcast
10:55 PM 28.4 °F 22.2 °F 26.6 °F 93% 29.92 in 0.8 mi ENE 5.8 mph - N/A   Overcast
11:15 PM 28.4 °F 20.4 °F 24.8 °F 86% 29.90 in 0.5 mi NE 8.1 mph - N/A   Overcast
11:35 PM 28.4 °F 21.2 °F 24.8 °F 86% 29.90 in 0.5 mi ENE 6.9 mph - N/A   Overcast
11:55 PM 28.4 °F 21.2 °F 26.6 °F 93% 29.89 in 0.5 mi ENE 6.9 mph - N/A   Overcast